"2009-03-15 00:00:00",711700,5.674,143.2,7.009,1.239,13.07,104.6945,11.29,12.54,7.766,0,110.4,13.28,12.08,105.2
"2009-03-15 00:00:30",711701,5.497,144.8,5.213,1.139,13.22,104.6981,11.3,12.53,7.75,0,110.4,13.29,12.09,106.8
"2009-03-15 00:01:00",711702,2.888,137.3,5.189,0.538,9.29,104.6982,11.3,12.38,7.604,0,110.4,13.29,12.09,99.3
"2009-03-15 00:01:30",711703,2.921,150.3,1.665,0.153,8.4,104.6996,11.3,12.27,7.469,0,110.4,13.32,12.10,112.3
"2009-03-15 00:02:00",711704,3.378,150.7,3.691,0.186,8.52,104.7007,11.31,12.29,7.456,0,110.4,13.32,12.10,112.7
"2009-03-15 00:02:30",711705,3.666,144.6,3.396,0.181,8.81,104.7007,11.31,12.28,7.468,0,110.4,13.32,12.10,106.6
"2009-03-15 00:03:00",711706,3.788,144.1,3.814,0.188,9.24,104.7007,11.31,12.28,7.51,0,110.4,13.32,12.10,106.1
"2009-03-15 00:03:30",711707,3.655,148.3,2.235,0.182,9.66,104.7007,11.31,12.31,7.54,0,110.4,13.32,12.10,110.3
"2009-03-15 00:04:00",711708,4.458,149.1,8.1,1.328,12.13,104.7007,11.31,12.47,7.667,0,110.4,13.28,12.10,111.1
"2009-03-15 00:04:30",711709,3.117,141.6,3.868,0.174,9.78,104.7007,11.31,12.42,7.629,0,110.4,13.32,12.10,103.6
"2009-03-15 00:05:00",711710,5.087,153.3,6.574,1.166,13.3,104.7007,11.31,12.53,7.737,0,110.3,13.28,12.10,115.3
"2009-03-15 00:05:30",711711,4.383,143.7,6.781,1.404,12.21,104.7007,11.31,12.54,7.741,0,110.4,13.28,12.10,105.7
"2009-03-15 00:06:00",711712,3.625,152.3,5.593,1.219,9.92,104.7007,11.31,12.41,7.565,0,110.4,13.28,12.10,114.3
"2009-03-15 00:06:30",711713,2.814,155.1,2.592,0.119,8.46,104.7021,11.31,12.34,7.435,0,110.4,13.32,12.10,117.1
"2009-03-15 00:07:00",711714,3.09,152.1,1.265,0.133,8.27,104.7055,11.32,12.32,7.453,0,110.4,13.32,12.11,114.1
"2009-03-15 00:07:30",711715,3.545,154.1,2.686,0.086,8.48,104.7058,11.32,12.34,7.434,0,110.4,13.32,12.11,116.1
"2009-03-15 00:08:00",711716,3.551,155.3,1.97,0.12,8.84,104.7063,11.32,12.35,7.396,0,110.4,13.33,12.11,117.3
"2009-03-15 00:08:30",711717,3.544,157.3,4.719,0.133,9.24,104.7072,11.32,12.34,7.355,0,110.4,13.33,12.11,119.3
"2009-03-15 00:09:00",711718,4.203,161.3,5.682,1.094,10.87,104.7058,11.32,12.43,7.356,0,110.4,13.29,12.11,123.3
"2009-03-15 00:09:30",711719,5.165,166.8,6.584,1.24,12.94,104.701,11.31,12.63,7.548,0,110.4,13.29,12.10,128.8
"2009-03-15 00:10:00",711720,4.513,160.4,9.77,1.275,12.02,104.7007,11.31,12.57,7.528,0,110.4,13.29,12.10,122.4
"2009-03-15 00:10:30",711721,4.421,159.1,6.957,1.282,10.85,104.7007,11.31,12.42,7.397,0,110.3,13.29,12.10,121.1
"2009-03-15 00:11:00",711722,3.295,166.8,2.94,0.228,8.76,104.7007,11.31,12.37,7.362,0,110.3,13.33,12.10,128.8
"2009-03-15 00:11:30",711723,4.415,167.3,5.99,1.232,9.13,104.7007,11.31,12.34,7.346,0,110.3,13.29,12.10,129.3
"2009-03-15 00:12:00",711724,4.63,169.1,7.505,1.251,10.7,104.7007,11.31,12.49,7.556,0,110.3,13.29,12.10,131.1
"2009-03-15 00:12:30",711725,4.074,167.5,4.945,0.963,9.03,104.7007,11.31,12.33,7.372,0,110.4,13.29,12.10,129.5
"2009-03-15 00:13:00",711726,3.67,161.8,3.106,0.166,8.76,104.6962,11.29,12.33,7.384,0,110.3,13.33,12.09,123.8
"2009-03-15 00:13:30",711727,4.549,168.8,6.468,1.317,11.15,104.692,11.28,12.49,7.521,0,110.3,13.29,12.08,130.8
"2009-03-15 00:14:00",711728,4.108,163,4.32,0.937,10.16,104.6855,11.27,12.46,7.503,0,110.3,13.29,12.06,125.0
"2009-03-15 00:14:30",711729,3.245,166.2,3.782,0.834,9.98,104.6686,11.22,12.41,7.483,0,110.4,13.29,12.02,128.2
"2009-03-15 00:15:00",711730,5.122,175.9,7.014,1.24,13.34,104.6669,11.22,12.57,7.708,0,110.4,13.29,12.01,137.9
"2009-03-15 00:15:30",711731,4.66,166.3,8.37,1.401,12.18,104.6669,11.22,12.49,7.632,0,110.4,13.29,12.01,128.3
"2009-03-15 00:16:00",711732,3.709,155.3,1.119,0.116,8.5,104.6669,11.22,12.29,7.419,0,110.3,13.33,12.01,117.3
"2009-03-15 00:16:30",711733,3.982,154.2,2.215,0.132,8.51,104.6669,11.22,12.28,7.407,0,110.3,13.33,12.01,116.2
"2009-03-15 00:17:00",711734,4.312,150.9,2.945,0.178,8.77,104.6669,11.22,12.36,7.514,0,110.3,13.33,12.01,112.9
"2009-03-15 00:17:30",711735,5.577,154.4,8.57,1.245,12.11,104.6669,11.22,12.46,7.629,0,110.3,13.29,12.01,116.4
"2009-03-15 00:18:00",711736,5.63,162.8,4.575,1.229,12.84,104.6669,11.22,12.49,7.702,0,110.3,13.29,12.01,124.8
"2009-03-15 00:18:30",711737,4.068,152.2,6.122,1.132,9.64,104.6669,11.22,12.28,7.45,0,110.3,13.29,12.01,114.2
"2009-03-15 00:19:00",711738,3.547,152.8,2.71,0.216,9.15,104.6669,11.22,12.26,7.46,0,110.3,13.32,12.01,114.8
"2009-03-15 00:19:30",711739,4.778,155.4,5.971,1.198,10.97,104.6669,11.22,12.37,7.548,0,110.3,13.29,12.01,117.4
"2009-03-15 00:20:00",711740,5.218,158.7,8.14,1.354,12.83,104.6669,11.22,12.5,7.697,0,110.3,13.29,12.01,120.7
"2009-03-15 00:20:30",711741,4.182,151,5.281,1.183,9.93,104.6669,11.22,12.3,7.476,0,110.3,13.29,12.01,113.0
"2009-03-15 00:21:00",711742,3.11,149.4,1.925,0.14,8.66,104.6666,11.22,12.24,7.435,0,110.3,13.32,12.01,111.4
"2009-03-15 00:21:30",711743,3.439,148.6,3.878,0.234,8.69,104.6646,11.21,12.25,7.442,0,110.3,13.32,12.01,110.6
"2009-03-15 00:22:00",711744,4.069,152.7,6.473,1.04,9.66,104.6601,11.2,12.24,7.419,0,110.4,13.29,11.99,114.7
"2009-03-15 00:22:30",711745,5.218,159.1,6.756,1.375,12.39,104.6599,11.2,12.47,7.643,0,110.3,13.29,11.99,121.1
"2009-03-15 00:23:00",711746,4.152,149.9,5.655,0.817,9.99,104.6582,11.2,12.39,7.578,0,110.3,13.29,11.99,111.9
"2009-03-15 00:23:30",711747,4.847,157.9,6.625,1.389,11.26,104.6577,11.2,12.28,7.468,0,110.3,13.29,11.99,119.9
"2009-03-15 00:24:00",711748,4.03,154.6,2.34,0.171,9.24,104.6559,11.19,12.24,7.463,0,110.3,13.33,11.98,116.6
"2009-03-15 00:24:30",711749,5.144,157,4.838,1.255,12.06,104.6557,11.19,12.44,7.722,0,110.3,13.29,11.98,119.0
"2009-03-15 00:25:00",711750,5.622,150.6,4.93,1.311,12.41,104.6534,11.19,12.42,7.734,0,110.3,13.29,11.98,112.6
"2009-03-15 00:25:30",711751,4.252,143.8,1.902,0.098,8.96,104.6515,11.18,12.23,7.55,0,110.3,13.33,11.97,105.8
"2009-03-15 00:26:00",711752,4.94,145,6.108,1.197,10.61,104.6417,11.16,12.4,7.699,0,110.3,13.29,11.95,107.0
"2009-03-15 00:26:30",711753,4.495,142,5.909,1.034,9.8,104.6375,11.14,12.33,7.624,0,110.3,13.29,11.94,104.0
"2009-03-15 00:27:00",711754,4.385,146,6.753,1.128,10.38,104.641,11.15,12.25,7.521,0,110.3,13.29,11.94,108.0
"2009-03-15 00:27:30",711755,4.191,150.8,6.248,1.097,10.92,104.6443,11.16,12.39,7.707,0,110.3,13.3,11.95,112.8
"2009-03-15 00:28:00",711756,4.113,149.2,5.631,1.083,10.16,104.6431,11.16,12.21,7.546,0,110.3,13.3,11.95,111.2
"2009-03-15 00:28:30",711757,3.711,148,1.707,0.148,9.32,104.6478,11.17,12.25,7.612,0,110.3,13.33,11.96,110.0
"2009-03-15 00:29:00",711758,5.748,156.9,6.495,1.165,12.93,104.6439,11.16,12.35,7.705,0,110.3,13.3,11.95,118.9
"2009-03-15 00:29:30",711759,4.498,151.8,6.941,1.079,10.59,104.6386,11.15,12.41,7.762,0,110.3,13.3,11.94,113.8
"2009-03-15 00:30:00",711760,4.975,155.1,7.434,1.348,11.08,104.6251,11.11,12.25,7.596,0,110.3,13.3,11.90,117.1
"2009-03-15 00:30:30",711761,4.812,150.9,7.256,1.323,10.83,104.6201,11.1,12.28,7.68,0,110.3,13.3,11.89,112.9
"2009-03-15 00:31:00",711762,3.911,144.5,4.668,0.513,9.29,104.6225,11.11,12.28,7.697,0,110.3,13.33,11.90,106.5
"2009-03-15 00:31:30",711763,3.916,142.6,3.892,0.12,8.85,104.624,11.11,12.15,7.578,0,110.3,13.33,11.90,104.6
"2009-03-15 00:32:00",711764,3.658,151.1,2.731,0.099,9.29,104.6284,11.12,12.24,7.692,0,110.3,13.33,11.91,113.1
"2009-03-15 00:32:30",711765,4.929,154.2,9.18,1.449,11.81,104.6305,11.13,12.2,7.66,0,110.3,13.3,11.92,116.2
"2009-03-15 00:33:00",711766,4.68,149.5,6.935,1.295,11.74,104.6295,11.12,12.25,7.696,0,110.3,13.3,11.92,111.5
"2009-03-15 00:33:30",711767,4.484,147.3,7.126,1.223,11.24,104.6213,11.1,12.26,7.746,0,110.3,13.3,11.89,109.3
"2009-03-15 00:34:00",711768,4.97,146.9,6.319,1.429,12.16,104.6081,11.07,12.39,7.86,0,110.3,13.3,11.86,108.9
"2009-03-15 00:34:30",711769,5.772,153.1,7.129,1.184,13.06,104.6008,11.05,12.31,7.761,0,110.3,13.29,11.84,115.1
"2009-03-15 00:35:00",711770,3.572,144.4,1.716,0.152,9,104.6008,11.05,12.18,7.666,0,110.3,13.33,11.84,106.4
"2009-03-15 00:35:30",711771,3.692,141.6,2.078,0.208,8.75,104.6008,11.05,12.07,7.573,0,110.3,13.33,11.84,103.6
"2009-03-15 00:36:00",711772,3.575,140.8,4.433,0.195,8.92,104.6008,11.05,12.08,7.578,0,110.3,13.33,11.84,102.8
"2009-03-15 00:36:30",711773,4.008,150.1,8.3,1.086,10.45,104.5955,11.04,12.11,7.595,0,110.3,13.29,11.83,112.1
"2009-03-15 00:37:00",711774,3.86,150.4,7.87,1.131,10.79,104.5873,11.02,12.12,7.664,0,110.3,13.29,11.81,112.4
"2009-03-15 00:37:30",711775,4.896,150.6,7.493,1.267,12.95,104.5723,10.98,12.26,7.814,0,110.3,13.29,11.77,112.6
"2009-03-15 00:38:00",711776,3.957,142.1,5.27,1.014,10.21,104.567,10.96,12.02,7.587,0,110.3,13.3,11.75,104.1
"2009-03-15 00:38:30",711777,4.863,145.8,6.57,1.379,11.53,104.567,10.96,12.11,7.681,0,110.3,13.29,11.75,107.8
"2009-03-15 00:39:00",711778,5.505,149.3,7.434,1.249,12.23,104.567,10.96,12.23,7.779,0,110.3,13.3,11.75,111.3
"2009-03-15 00:39:30",711779,4.443,145.7,7.076,1.251,11.47,104.567,10.96,12.12,7.681,0,110.3,13.3,11.75,107.7
"2009-03-15 00:40:00",711780,3.271,143.3,4.69,0.143,8.9,104.567,10.96,11.99,7.562,0,110.3,13.34,11.75,105.3
"2009-03-15 00:40:30",711781,3.254,140.4,3.01,0.15,8.91,104.5619,10.95,11.98,7.547,0,110.3,13.34,11.74,102.4
"2009-03-15 00:41:00",711782,3.542,140.5,3.271,0.141,9.28,104.556,10.94,12.04,7.643,0,110.3,13.34,11.73,102.5
"2009-03-15 00:41:30",711783,5.244,151.2,6.137,1.278,13.09,104.5441,10.91,12.19,7.804,0,110.3,13.31,11.70,113.2
"2009-03-15 00:42:00",711784,5.106,151.1,6.455,1.364,12.55,104.534,10.88,12.07,7.693,0,110.3,13.31,11.67,113.1
"2009-03-15 00:42:30",711785,3.985,144.5,4.743,0.938,10.48,104.5331,10.88,12.09,7.718,0,110.3,13.31,11.67,106.5
"2009-03-15 00:43:00",711786,4.968,150.9,6.868,1.354,11.42,104.5331,10.88,11.99,7.647,0,110.3,13.31,11.67,112.9
"2009-03-15 00:43:30",711787,4.486,153.2,6.59,1.319,11.75,104.5331,10.88,12.15,7.788,0,110.3,13.31,11.67,115.2
"2009-03-15 00:44:00",711788,4.172,149.7,5.468,1.151,9.91,104.5331,10.88,11.91,7.572,0,110.3,13.31,11.67,111.7
"2009-03-15 00:44:30",711789,3.589,144.5,0.878,0.04,9.02,104.5331,10.88,11.91,7.605,0,110.3,13.34,11.67,106.5
"2009-03-15 00:45:00",711790,3.541,144.1,0.474,0.052,9.08,104.5312,10.87,11.9,7.575,0,110.3,13.34,11.66,106.1
"2009-03-15 00:45:30",711791,3.499,147.1,3.084,0.518,9.54,104.5205,10.85,11.94,7.632,0,110.3,13.31,11.64,109.1
"2009-03-15 00:46:00",711792,5.436,154.2,5.972,1.175,13.35,104.5128,10.83,12.12,7.837,0,110.3,13.31,11.62,116.2
"2009-03-15 00:46:30",711793,4.667,150,7.016,1.282,11.99,104.501,10.8,12.13,7.854,0,110.3,13.31,11.59,112.0
"2009-03-15 00:47:00",711794,4.564,151.8,6.728,1.255,11.28,104.4993,10.79,11.93,7.663,0,110.3,13.31,11.58,113.8
"2009-03-15 00:47:30",711795,3.735,150.8,4.998,0.932,10.04,104.4993,10.79,12.07,7.806,0,110.3,13.31,11.58,112.8
"2009-03-15 00:48:00",711796,4.571,158.7,7.754,1.329,11.31,104.4993,10.79,11.9,7.639,0,110.3,13.31,11.58,120.7
"2009-03-15 00:48:30",711797,4.306,154.5,6.564,1.267,11.2,104.4954,10.78,12.01,7.753,0,110.3,13.31,11.57,116.5
"2009-03-15 00:49:00",711798,3.576,151.3,1.17,0.138,9.18,104.4861,10.76,11.82,7.578,0,110.3,13.35,11.55,113.3
"2009-03-15 00:49:30",711799,3.524,150.8,2.26,0.056,9.27,104.4686,10.71,11.81,7.572,0,110.2,13.35,11.50,112.8
"2009-03-15 00:50:00",711800,4.235,154.7,6.43,1.178,10.85,104.4658,10.71,11.83,7.603,0,110.2,13.31,11.49,116.7
"2009-03-15 00:50:30",711801,5.256,162.7,6.42,1.251,13.69,104.4658,10.71,12.03,7.822,0,110.2,13.31,11.49,124.7
"2009-03-15 00:51:00",711802,5.356,162.4,6.222,1.132,13.66,104.4676,10.71,12.09,7.904,0,110.2,13.31,11.50,124.4
"2009-03-15 00:51:30",711803,3.241,151.5,2.491,0.253,9.55,104.4657,10.71,11.86,7.722,0,110.2,13.35,11.49,113.5
"2009-03-15 00:52:00",711804,3.065,149.1,1.961,0.05,8.89,104.4554,10.68,11.8,7.662,0,110.2,13.35,11.47,111.1
"2009-03-15 00:52:30",711805,4.299,152.8,6.501,1.316,11.61,104.4405,10.64,11.8,7.659,0,110.2,13.31,11.43,114.8
"2009-03-15 00:53:00",711806,3.784,148.6,6.42,1.279,11.09,104.4426,10.65,11.91,7.784,0,110.2,13.31,11.44,110.6
"2009-03-15 00:53:30",711807,2.871,143.2,2.385,0.06,9.11,104.4431,10.65,11.71,7.611,0,110.2,13.35,11.44,105.2
"2009-03-15 00:54:00",711808,2.843,144,2.125,0.05,9.33,104.4424,10.65,11.68,7.616,0,110.2,13.35,11.43,106.0
"2009-03-15 00:54:30",711809,3.181,140.6,3.867,0.495,10.04,104.4351,10.63,11.78,7.739,0,110.2,13.31,11.42,102.6
"2009-03-15 00:55:00",711810,5.283,152.8,5.095,1.022,14.23,104.4268,10.61,11.95,7.939,0,110.2,13.31,11.39,114.8
"2009-03-15 00:55:30",711811,5.106,151.6,6.117,1.176,13.29,104.4173,10.58,11.94,7.927,0,110.2,13.31,11.37,113.6
"2009-03-15 00:56:00",711812,3.388,138.1,3.491,0.642,9.63,104.4193,10.59,11.67,7.685,0,110.2,13.32,11.38,100.1
"2009-03-15 00:56:30",711813,4.427,147,7.36,1.344,11.49,104.4174,10.58,11.72,7.774,0,110.2,13.32,11.37,109.0
"2009-03-15 00:57:00",711814,3.428,141.9,1.167,0.469,9.52,104.4072,10.56,11.73,7.813,0,110.2,13.32,11.34,103.9
"2009-03-15 00:57:30",711815,4.681,150.5,7.051,1.29,11.67,104.3931,10.52,11.67,7.776,0,110.2,13.32,11.31,112.5
"2009-03-15 00:58:00",711816,4.203,146.9,6.708,1.181,10.84,104.3967,10.53,11.6,7.689,0,110.2,13.32,11.32,108.9
"2009-03-15 00:58:30",711817,4.242,145.3,6.059,1.133,10.71,104.3804,10.49,11.67,7.786,0,110.2,13.32,11.28,107.3
"2009-03-15 00:59:00",711818,5.803,154,4.614,0.998,14.22,104.3655,10.45,11.8,7.924,0,110.2,13.32,11.24,116.0
"2009-03-15 00:59:30",711819,4.902,143.9,6.247,1.332,12.45,104.3635,10.44,11.76,7.938,0,110.2,13.32,11.23,105.9
"2009-03-15 01:00:00",711820,4.079,143.1,4.795,0.979,10.16,104.3497,10.41,11.53,7.722,0,110.2,13.32,11.20,105.1
"2009-03-15 01:00:30",711821,3.615,138.1,1.58,0.06,9.29,104.3316,10.36,11.46,7.697,0,110.2,13.36,11.15,100.1
"2009-03-15 01:01:00",711822,4.935,144.6,6.929,1.316,12,104.3266,10.35,11.62,7.887,0,110.2,13.32,11.14,106.6
"2009-03-15 01:01:30",711823,3.763,138.8,1.465,0.074,9.81,104.3012,10.28,11.44,7.763,0,110.2,13.36,11.07,100.8
"2009-03-15 01:02:00",711824,4.659,144.2,6.818,1.223,11.18,104.2978,10.28,11.45,7.784,0,110.2,13.33,11.06,106.2
"2009-03-15 01:02:30",711825,5.352,149.1,6.222,1.287,13.07,104.2837,10.24,11.57,7.98,0,110.2,13.33,11.03,111.1
"2009-03-15 01:03:00",711826,5.709,151.4,5.866,1.163,13.44,104.2645,10.19,11.61,8.06,0,110.2,13.33,10.98,113.4
"2009-03-15 01:03:30",711827,4.988,147.1,7.055,1.384,11.56,104.2631,10.19,11.37,7.937,0,110.2,13.33,10.97,109.1
"2009-03-15 01:04:00",711828,3.602,139.2,1.591,0.083,9.24,104.2434,10.14,11.27,7.864,0,110.2,13.36,10.92,101.2
"2009-03-15 01:04:30",711829,4.583,141.3,7.078,1.174,10.75,104.2301,10.1,11.25,7.887,0,110.2,13.33,10.89,103.3
"2009-03-15 01:05:00",711830,3.567,140.7,4.66,0.465,10.55,104.2281,10.1,11.37,8.06,0,110.2,13.37,10.88,102.7
"2009-03-15 01:05:30",711831,4.707,144.3,7.281,1.354,12.24,104.2129,10.06,11.28,7.989,0,110.2,13.34,10.85,106.3
"2009-03-15 01:06:00",711832,4.367,145.2,7.229,1.276,12.17,104.1974,10.02,11.29,8.05,0,110.2,13.34,10.81,107.2
"2009-03-15 01:06:30",711833,4.06,144.7,6.395,1.218,11.61,104.201,10.03,11.34,8.14,0,110.2,13.34,10.82,106.7
"2009-03-15 01:07:00",711834,5.015,148.2,6.746,1.12,13.27,104.1918,10,11.39,8.23,0,110.2,13.34,10.79,110.2
"2009-03-15 01:07:30",711835,3.556,138.8,5.873,0.772,9.81,104.1721,9.95,11.14,8,0,110.2,13.34,10.74,100.8
"2009-03-15 01:08:00",711836,3.365,143.2,2.709,0.09,9.14,104.1768,9.97,11.08,7.987,0,110.2,13.37,10.75,105.2
"2009-03-15 01:08:30",711837,3.595,143.9,3.658,0.676,9.83,104.1739,9.96,11.1,8.05,0,110.2,13.34,10.75,105.9
"2009-03-15 01:09:00",711838,4.077,146.7,5.108,1.241,11.23,104.1584,9.92,11.05,8.05,0,110.2,13.33,10.71,108.7
"2009-03-15 01:09:30",711839,4.599,148.5,6.716,1.251,13.26,104.1583,9.92,11.29,8.35,0,110.2,13.34,10.71,110.5
"2009-03-15 01:10:00",711840,3.932,142.8,6.207,1.058,11.09,104.1603,9.92,11.06,8.16,0,110.2,13.34,10.71,104.8
"2009-03-15 01:10:30",711841,4.858,146.9,6.738,1.331,12.46,104.1548,9.91,11.2,8.31,0,110.2,13.34,10.70,108.9
"2009-03-15 01:11:00",711842,5.26,146.8,6.48,1.245,12.8,104.1339,9.86,11.17,8.33,0,110.2,13.34,10.64,108.8
"2009-03-15 01:11:30",711843,3.608,137.3,2.427,0.044,9.57,104.13,9.85,11.04,8.21,0,110.2,13.38,10.63,99.3
"2009-03-15 01:12:00",711844,3.598,137.4,1.193,0.058,9.11,104.13,9.85,10.9,8.11,0,110.2,13.38,10.63,99.4
"2009-03-15 01:12:30",711845,3.695,139.2,1.97,0.063,9.32,104.1227,9.83,10.89,8.11,0,110.2,13.38,10.61,101.2
"2009-03-15 01:13:00",711846,5.29,146,8.04,1.301,12.62,104.1102,9.8,10.97,8.22,0,110.1,13.35,10.58,108.0
"2009-03-15 01:13:30",711847,5.737,146.1,6.474,1.218,13.56,104.1023,9.78,11.05,8.32,0,110.1,13.35,10.56,108.1
"2009-03-15 01:14:00",711848,4.88,142.4,6.866,1.274,12.62,104.0961,9.76,11.05,8.32,0,110.1,13.35,10.55,104.4
"2009-03-15 01:14:30",711849,5.396,145.1,7.129,1.286,12.71,104.0953,9.76,11.02,8.33,0,110.1,13.35,10.54,107.1
"2009-03-15 01:15:00",711850,5.188,144.1,6.139,1.325,12.01,104.0868,9.74,11.06,8.41,0,110,13.35,10.52,106.1
"2009-03-15 01:15:30",711851,4.082,137.5,3.997,0.656,9.64,104.0786,9.72,10.81,8.17,0,110.1,13.35,10.50,99.5
"2009-03-15 01:16:00",711852,3.946,136.5,0.726,0.077,9.32,104.0637,9.68,10.78,8.17,0,110.1,13.39,10.46,98.5
"2009-03-15 01:16:30",711853,3.804,137.8,1.001,0.039,9.8,104.0623,9.67,10.81,8.23,0,110.1,13.39,10.46,99.8
"2009-03-15 01:17:00",711854,5.212,147,6.202,1.266,13.36,104.0623,9.67,11.02,8.46,0,110.1,13.35,10.46,109.0
"2009-03-15 01:17:30",711855,5.534,146.6,6.302,1.218,13.79,104.0617,9.67,11.01,8.44,0,110.1,13.36,10.46,108.6
"2009-03-15 01:18:00",711856,4.9,142.9,6.883,1.302,12.09,104.0578,9.66,10.84,8.31,0,110.1,13.36,10.45,104.9
"2009-03-15 01:18:30",711857,5.252,145.2,7.118,1.289,12.68,104.0482,9.64,10.92,8.43,0,110.1,13.36,10.42,107.2
"2009-03-15 01:19:00",711858,3.85,137,5.506,0.989,10.33,104.0412,9.62,10.83,8.32,0,110.1,13.36,10.41,99.0
"2009-03-15 01:19:30",711859,3.426,132.1,0.975,0.084,9.17,104.0402,9.62,10.68,8.2,0,110.1,13.39,10.40,94.1
"2009-03-15 01:20:00",711860,3.618,130.7,0.808,0.046,9.33,104.0361,9.61,10.68,8.18,0,110.1,13.39,10.39,92.7
"2009-03-15 01:20:30",711861,4.166,135.4,5.52,1.12,10.67,104.0387,9.61,10.67,8.18,0,110.1,13.36,10.40,97.4
"2009-03-15 01:21:00",711862,5.317,141.8,6.345,1.242,13.66,104.0419,9.62,10.92,8.42,0,110.1,13.36,10.41,103.8
"2009-03-15 01:21:30",711863,6.02,143.6,4.928,0.846,14.21,104.0447,9.63,10.84,8.37,0,110.1,13.36,10.41,105.6
"2009-03-15 01:22:00",711864,5.469,141.8,6.768,1.252,12.9,104.0449,9.63,10.9,8.46,0,110.1,13.36,10.41,103.8
"2009-03-15 01:22:30",711865,5.386,140.8,6.31,1.278,11.96,104.0365,9.61,10.72,8.27,0,110.1,13.36,10.39,102.8
"2009-03-15 01:23:00",711866,3.645,135.2,1.524,0.033,8.93,104.03,9.59,10.62,8.2,0,110.1,13.4,10.38,97.2
"2009-03-15 01:23:30",711867,3.709,136.9,0.562,0.131,9.15,104.0295,9.59,10.61,8.19,0,110.1,13.39,10.38,98.9
"2009-03-15 01:24:00",711868,3.755,140,2.022,0.053,9.48,104.0295,9.59,10.6,8.24,0,110.1,13.39,10.38,102.0
"2009-03-15 01:24:30",711869,4.622,145.7,6.453,1.236,11.93,104.0292,9.59,10.73,8.4,0,110.1,13.36,10.37,107.7
"2009-03-15 01:25:00",711870,4.999,145.4,7.21,1.274,12.6,104.0298,9.59,10.83,8.51,0,110.1,13.36,10.38,107.4
"2009-03-15 01:25:30",711871,6.119,149.6,5.845,0.919,14.36,104.0275,9.58,10.84,8.57,0,110.1,13.36,10.37,111.6
"2009-03-15 01:26:00",711872,5.272,146.4,7.072,1.323,12.58,104.0222,9.57,10.83,8.59,0,110.1,13.36,10.36,108.4
"2009-03-15 01:26:30",711873,4.251,140.4,6.589,1.033,10.4,104.0171,9.56,10.73,8.51,0,110.1,13.36,10.34,102.4
"2009-03-15 01:27:00",711874,3.599,132.5,1.242,0.08,8.92,104.012,9.54,10.55,8.39,0,110.1,13.39,10.33,94.5
"2009-03-15 01:27:30",711875,3.639,132.5,0.726,0.051,9.09,104.003,9.52,10.54,8.41,0,110.1,13.39,10.31,94.5
"2009-03-15 01:28:00",711876,4.771,140.6,7.207,1.237,11.68,103.9965,9.51,10.68,8.56,0,110.1,13.36,10.29,102.6
"2009-03-15 01:28:30",711877,4.27,139.8,6.095,1.151,11.32,103.9959,9.5,10.65,8.56,0,110.1,13.36,10.29,101.8
"2009-03-15 01:29:00",711878,5.221,140.5,6.693,1.391,12.52,103.9959,9.5,10.73,8.64,0,110.1,13.36,10.29,102.5
"2009-03-15 01:29:30",711879,5.697,144.9,5.893,1.103,13.9,103.9959,9.5,10.79,8.74,0,110.1,13.37,10.29,106.9
"2009-03-15 01:30:00",711880,5.029,143.4,6.227,1.255,12.36,103.9956,9.5,10.74,8.69,0,110.1,13.37,10.29,105.4
"2009-03-15 01:30:30",711881,4.029,137.2,4.673,0.903,9.62,103.9914,9.49,10.52,8.45,0,110.1,13.37,10.28,99.2
"2009-03-15 01:31:00",711882,3.687,136.4,0.758,0.03,9.09,103.9869,9.48,10.49,8.47,0,110.1,13.4,10.27,98.4
"2009-03-15 01:31:30",711883,3.801,137.2,0.568,0.094,9.59,103.9844,9.47,10.5,8.53,0,110.1,13.41,10.26,99.2
"2009-03-15 01:32:00",711884,4.888,142.1,6.58,1.307,12.04,103.9736,9.45,10.62,8.66,0,110.1,13.38,10.23,104.1
"2009-03-15 01:32:30",711885,4.404,138.4,5.354,1.122,11.36,103.9646,9.42,10.61,8.72,0,110.1,13.38,10.21,100.4
"2009-03-15 01:33:00",711886,5.637,143.8,6.002,1.174,13.61,103.9621,9.42,10.71,8.82,0,110.1,13.38,10.20,105.8
"2009-03-15 01:33:30",711887,5.572,143.7,6.943,1.235,13.48,103.9627,9.42,10.71,8.82,0,110.1,13.38,10.20,105.7
"2009-03-15 01:34:00",711888,4.536,140,4.048,1,10.01,103.9635,9.42,10.46,8.57,0,110.1,13.38,10.21,102.0
"2009-03-15 01:34:30",711889,3.943,137.6,1.454,0.046,9,103.9685,9.43,10.45,8.57,0,110.1,13.41,10.22,99.6
"2009-03-15 01:35:00",711890,4.288,138.7,4.401,0.78,10.03,103.97,9.44,10.61,8.71,0,110.1,13.38,10.22,100.7
"2009-03-15 01:35:30",711891,4.648,139.8,6.738,1.261,11.08,103.9723,9.44,10.5,8.6,0,110.1,13.38,10.23,101.8
"2009-03-15 01:36:00",711892,4.678,142.2,6.316,1.098,11.65,103.973,9.44,10.54,8.63,0,110.1,13.38,10.23,104.2
"2009-03-15 01:36:30",711893,5.501,146.8,6.234,1.237,12.89,103.9731,9.45,10.62,8.76,0,110.1,13.38,10.23,108.8
"2009-03-15 01:37:00",711894,5.938,150.8,5.051,1.031,14.01,103.9742,9.45,10.71,8.88,0,110.1,13.38,10.23,112.8
"2009-03-15 01:37:30",711895,4.991,147.3,6.526,1.246,12.1,103.9743,9.45,10.65,8.84,0,110.1,13.38,10.23,109.3
"2009-03-15 01:38:00",711896,4.257,138.7,4.61,0.767,9.52,103.9702,9.44,10.43,8.59,0,110,13.38,10.22,100.7
"2009-03-15 01:38:30",711897,4.094,137.4,1.469,0.121,9.09,103.9658,9.43,10.44,8.61,0,110,13.42,10.21,99.4
"2009-03-15 01:39:00",711898,5.226,145.9,6.901,1.263,11.26,103.9661,9.43,10.53,8.72,0,110,13.38,10.21,107.9
"2009-03-15 01:39:30",711899,4.714,144.1,4.928,0.898,10.72,103.9664,9.43,10.53,8.73,0,110,13.38,10.21,106.1
"2009-03-15 01:40:00",711900,5.249,147,6.689,1.239,11.63,103.9642,9.42,10.54,8.75,0,110,13.38,10.21,109.0
"2009-03-15 01:40:30",711901,6.454,152.1,5.512,0.961,14.42,103.9619,9.42,10.71,8.97,0,110,13.38,10.20,114.1
"2009-03-15 01:41:00",711902,6.126,151.8,5.687,1.211,13.56,103.9625,9.42,10.62,8.88,0,110,13.38,10.20,113.8
"2009-03-15 01:41:30",711903,4.61,143.3,5.885,1.233,9.89,103.9634,9.42,10.4,8.66,0,110,13.37,10.21,105.3
"2009-03-15 01:42:00",711904,4.524,145.3,4.197,0.94,9.6,103.9634,9.42,10.4,8.67,0,110,13.38,10.21,107.3
"2009-03-15 01:42:30",711905,4.646,146.6,5.068,0.898,10.15,103.9634,9.42,10.53,8.79,0,110.1,13.38,10.21,108.6
"2009-03-15 01:43:00",711906,5.253,147.1,5.77,1.126,10.62,103.9617,9.42,10.38,8.61,0,110.1,13.38,10.20,109.1
"2009-03-15 01:43:30",711907,4.635,144.4,2.857,0.497,10.21,103.9586,9.41,10.5,8.75,0,110.1,13.41,10.19,106.4
"2009-03-15 01:44:00",711908,6.634,152.7,5.628,0.949,13.84,103.9535,9.4,10.62,8.91,0,110.1,13.38,10.18,114.7
"2009-03-15 01:44:30",711909,6.173,147.5,6.86,1.221,13.3,103.9507,9.39,10.63,8.96,0,110.1,13.38,10.17,109.5
"2009-03-15 01:45:00",711910,5.328,143.6,5.302,1.189,11.2,103.9493,9.38,10.45,8.81,0,110,13.38,10.17,105.6
"2009-03-15 01:45:30",711911,4.668,141.5,1.235,0.063,9.04,103.9445,9.37,10.37,8.74,0,110.1,13.42,10.16,103.5
"2009-03-15 01:46:00",711912,5.783,144.1,6.005,1.261,11.21,103.9406,9.36,10.52,8.89,0,110.1,13.38,10.15,106.1
"2009-03-15 01:46:30",711913,4.832,143.2,4.695,0.785,10.3,103.9374,9.35,10.52,8.89,0,110,13.39,10.14,105.2
"2009-03-15 01:47:00",711914,5.553,145.6,7.058,1.199,11.2,103.9346,9.35,10.39,8.76,0,110.1,13.39,10.13,107.6
"2009-03-15 01:47:30",711915,6.199,149.6,6.799,1.201,13.31,103.9338,9.34,10.65,9.02,0,110,13.39,10.13,111.6
"2009-03-15 01:48:00",711916,6.371,150.7,6.488,1.161,13.16,103.9307,9.34,10.6,8.98,0,110,13.39,10.12,112.7
"2009-03-15 01:48:30",711917,6.199,151.5,5.95,1.171,12.98,103.9315,9.34,10.55,8.93,0,110,13.39,10.12,113.5
"2009-03-15 01:49:00",711918,5.227,146.2,5.006,1.053,9.96,103.9295,9.33,10.36,8.72,0,110,13.39,10.12,108.2